Temp
69 77 76 70 54 54 50 57 66 64 63 68 71 66 63 67 64 53 69 73 73 72 73 75 75 76 76 76 76 76 76 76 77 77 77 77 77 77 77 76 76 77 78 78 78 78 77 76 75
68 74 69 64 50 47 52 64 62 65 64 67 67 67 64 62 69 67 65 73 74 72 72 69 68 75 76 76 75 76 76 76 76 77 77 77 76 77 77 77 75 76 78 78 78 78 77 75 75
68 76 61 56 52 47 52 60 60 64 65 63 63 69 65 62 66 66 69 73 74 69 71 68 68 71 76 75 75 75 75 76 76 76 77 76 76 76 76 76 75 76 77 78 77 77 76 75 74
70 67 64 51 51 59 61 61 62 62 63 62 62 57 64 69 67 68 71 72 70 70 71 69 69 68 70 74 75 75 75 75 76 76 76 75 76 75 75 75 75 75 76 76 76 75 75 74 74
68 64 51 49 53 60 65 62 60 58 60 59 60 57 60 67 71 69 68 71 69 69 67 69 68 68 67 68 74 74 75 75 75 75 75 75 75 75 74 75 75 75 75 75 76 75 74 74 73
57 59 48 47 54 62 58 59 58 57 60 61 58 54 59 68 68 66 67 67 70 69 69 67 66 66 68 67 67 73 74 74 75 74 74 74 74 74 74 74 74 75 75 75 75 74 73 73 73
53 51 47 50 54 57 54 59 54 52 54 55 56 50 59 65 66 65 65 66 67 69 68 66 64 65 65 66 65 64 70 73 72 73 73 72 72 73 73 73 73 74 74 74 74 73 72 72 72
54 52 48 49 49 49 53 55 57 54 52 61 56 50 51 62 65 64 63 63 65 67 67 65 64 63 64 65 64 64 65 67 70 70 69 69 68 69 70 69 71 73 73 73 72 72 72 72 71
58 44 43 47 49 50 57 52 56 58 52 55 59 57 62 65 64 61 59 60 60 64 64 64 62 62 61 65 66 63 65 64 65 67 65 64 70 70 68 68 69 71 72 72 72 71 71 69 67
49 42 45 51 51 48 51 51 51 49 51 52 56 61 63 62 59 56 56 55 57 58 60 62 62 61 61 65 65 64 67 68 68 69 70 68 71 71 73 67 65 68 68 70 71 70 68 65 64
48 43 50 52 52 51 49 48 53 49 45 51 51 55 58 57 56 56 56 56 56 58 59 59 61 61 60 59 60 62 63 63 67 69 69 69 70 70 69 68 68 68 64 68 69 68 66 66 66
43 51 51 51 52 49 46 50 47 49 50 56 55 57 56 54 55 54 53 54 56 56 58 59 59 60 60 58 58 61 62 62 62 64 69 69 67 68 69 68 69 69 68 68 67 66 66 65 68
44 48 51 51 50 49 51 46 46 48 53 55 56 56 54 54 55 54 54 54 55 54 56 57 58 59 61 59 57 58 60 62 62 62 64 67 68 68 69 69 69 69 69 69 67 66 66 65 65
46 47 47 50 49 49 46 45 46 48 53 53 55 53 54 54 52 52 53 52 54 55 54 55 57 58 59 58 57 57 58 59 62 61 62 63 67 67 68 68 69 68 70 70 69 68 66 65 65
47 41 46 49 48 46 47 40 42 49 54 51 53 55 53 51 52 50 52 52 53 53 54 54 56 57 57 58 57 57 57 59 58 60 61 63 63 66 66 67 67 70 70 69 70 69 67 65 64
42 40 33 47 48 46 43 31 47 51 49 49 50 51 50 49 50 52 52 53 53 53 53 54 57 55 55 56 57 59 57 57 57 57 61 62 63 64 63 64 66 67 70 69 69 69 67 64 63
35 23 30 38 48 46 41 34 45 52 51 46 46 46 46 47 49 51 51 51 51 51 51 51 52 52 54 55 56 57 59 57 56 56 57 61 63 64 64 63 65 66 66 67 68 68 68 63 62
25 26 32 33 42 44 39 38 45 49 45 42 41 42 44 45 47 51 50 50 49 49 50 50 51 52 53 53 54 55 56 57 56 55 57 59 62 64 63 64 64 66 64 63 66 67 67 65 63
37 32 29 36 44 38 37 38 41 45 41 39 38 41 42 44 48 49 49 47 47 47 47 48 48 50 51 50 50 51 53 56 56 55 57 58 60 61 62 61 62 63 62 64 64 64 65 63 64
34 29 27 36 43 37 34 34 41 44 41 39 38 39 41 43 45 46 45 45 44 43 44 44 45 46 46 47 49 52 53 56 58 57 57 58 57 58 59 60 62 61 61 62 62 61 61 62 63
32 28 27 29 35 35 33 28 36 41 42 42 42 42 43 42 41 41 42 41 41 40 41 44 45 44 45 47 48 51 53 55 55 55 55 57 58 57 57 61 61 62 63 62 62 62 61 59 60
22 39 35 30 21 15 32 13 30 36 37 40 40 39 40 39 40 40 40 39 39 41 43 43 42 42 44 47 47 48 49 50 54 54 54 56 59 57 58 60 61 62 62 62 62 62 62 61 57
30 38 33 31 18 19 23 14 27 37 33 34 36 39 39 38 38 36 37 38 38 40 40 41 41 40 43 46 47 48 48 51 54 54 54 55 56 57 57 59 60 58 60 62 62 62 62 60 59
40 31 31 28 19 14 16 15 20 25 28 32 36 36 37 36 35 35 36 37 36 38 38 39 38 38 41 45 49 49 49 50 51 51 51 52 54 54 56 58 59 59 58 60 60 62 61 59 59
31 21 13 11 11 13 16 17 22 28 33 33 32 34 34 34 32 32 31 33 34 35 36 36 36 36 39 43 46 48 49 51 51 51 51 51 52 52 53 56 57 58 60 60 61 60 60 60 59
26 19 11 1 9 15 17 12 24 33 35 34 34 34 33 31 31 30 31 31 31 33 34 34 34 35 38 41 43 46 48 48 49 50 51 51 51 51 53 54 56 55 56 61 60 60 60 60 59
25 19 26 11 12 12 15 23 29 30 24 30 30 30 28 28 29 29 30 30 31 32 32 32 33 35 37 39 41 43 45 46 46 46 50 49 50 51 50 52 51 52 52 59 60 59 59 59 59
25 29 13 14 6 4 13 13 18 15 16 22 25 25 26 28 28 28 29 29 31 32 32 33 33 34 35 38 39 41 42 44 45 46 47 49 50 48 46 46 46 48 48 51 59 59 59 58 58
22 17 17 16 18 11 8 13 20 16 16 19 21 26 24 25 26 27 28 29 31 32 32 33 33 34 35 37 38 39 40 41 43 44 45 45 46 44 45 44 44 45 46 46 48 49 50 53 47
29 21 24 12 9 18 18 18 24 20 19 16 20 25 27 27 28 27 27 28 29 28 30 31 32 33 34 36 37 37 39 39 40 41 42 43 42 42 42 43 42 42 43 44 44 43 43 44 43
MSLP
1013.68 1012.39 1011.87 1011.54 1011.88 1010.99 1010.01 1008.68 1007.72 1007.62 1007.92 1008.72 1008.59 1008.75 1009.11 1009.29 1009.69 1012.05 1012.82 1012.74 1012.62 1012.71 1012.43 1011.49 1011.50 1011.48 1011.73 1011.97 1012.19 1012.41 1012.74 1013.10 1013.41 1013.71 1014.01 1014.17 1014.38 1014.63 1014.80 1014.85 1015.09 1015.24 1015.30 1015.59 1015.70 1015.95 1016.36 1016.73 1017.00
1013.82 1012.80 1012.20 1011.53 1011.48 1010.51 1009.29 1007.96 1008.03 1008.53 1009.50 1009.51 1009.24 1009.24 1009.45 1010.12 1010.87 1012.16 1012.70 1012.87 1012.60 1012.84 1012.77 1012.64 1012.31 1011.59 1011.70 1012.01 1012.21 1012.38 1012.60 1012.88 1013.35 1013.62 1013.86 1014.03 1014.27 1014.46 1014.69 1015.05 1015.17 1015.27 1015.28 1015.55 1015.80 1015.90 1016.19 1016.74 1017.04
1013.79 1012.70 1012.22 1011.32 1010.79 1009.97 1009.09 1008.82 1009.23 1009.63 1010.01 1010.39 1010.31 1009.84 1010.15 1011.46 1012.17 1012.83 1013.40 1013.20 1012.79 1012.93 1012.96 1013.05 1012.78 1012.05 1011.66 1011.94 1012.24 1012.38 1012.47 1012.76 1013.07 1013.44 1013.64 1013.86 1014.11 1014.25 1014.51 1014.88 1015.12 1015.30 1015.38 1015.38 1015.84 1016.03 1016.28 1016.63 1017.16
1012.84 1012.59 1012.14 1011.15 1010.04 1009.22 1008.99 1009.66 1010.17 1010.49 1010.84 1011.25 1011.53 1011.34 1011.56 1012.24 1012.72 1013.46 1013.63 1013.45 1013.21 1013.01 1013.05 1013.10 1012.88 1012.67 1012.35 1011.90 1011.97 1012.31 1012.46 1012.64 1012.85 1013.12 1013.37 1013.70 1014.00 1014.09 1014.36 1014.70 1014.98 1015.25 1015.44 1015.46 1015.81 1016.16 1016.43 1016.68 1017.03
1012.92 1012.16 1011.91 1011.04 1010.30 1009.89 1009.65 1010.34 1011.19 1011.52 1011.60 1011.76 1012.28 1012.06 1012.35 1012.83 1012.98 1013.53 1013.75 1013.62 1013.44 1013.26 1013.13 1013.23 1013.28 1013.07 1012.85 1012.66 1012.11 1012.24 1012.34 1012.52 1012.78 1012.96 1013.15 1013.47 1013.73 1014.06 1014.33 1014.57 1014.86 1015.06 1015.38 1015.53 1015.79 1016.21 1016.55 1016.80 1017.13
1012.89 1012.45 1011.95 1011.21 1010.49 1009.89 1011.12 1011.86 1012.05 1012.18 1012.33 1012.46 1012.75 1013.33 1013.03 1013.06 1013.34 1013.86 1013.98 1013.83 1013.59 1013.30 1013.20 1013.27 1013.44 1013.37 1013.11 1012.95 1012.69 1012.24 1012.37 1012.38 1012.56 1012.82 1012.99 1013.20 1013.42 1013.75 1014.15 1014.49 1014.67 1014.96 1015.20 1015.41 1015.79 1016.12 1016.57 1016.79 1017.20
1013.35 1012.92 1012.32 1011.70 1011.28 1011.04 1012.32 1012.89 1013.22 1013.61 1013.69 1013.76 1014.18 1014.03 1013.26 1013.20 1013.89 1014.08 1014.09 1014.02 1013.79 1013.37 1013.39 1013.37 1013.47 1013.53 1013.34 1013.11 1012.90 1012.78 1012.49 1012.31 1012.25 1012.61 1012.82 1013.15 1013.25 1013.46 1013.79 1014.15 1014.56 1014.79 1014.96 1015.34 1015.66 1016.01 1016.48 1016.76 1017.15
1014.50 1013.86 1013.07 1012.15 1012.24 1012.67 1013.61 1013.87 1014.08 1014.34 1014.52 1014.42 1014.24 1013.98 1013.49 1013.43 1013.67 1014.05 1014.29 1014.15 1013.96 1013.84 1013.59 1013.49 1013.53 1013.55 1013.47 1013.12 1012.86 1012.74 1012.60 1012.43 1012.26 1012.39 1012.60 1012.86 1013.18 1013.35 1013.58 1013.94 1014.17 1014.59 1014.85 1015.20 1015.48 1015.90 1016.31 1016.55 1016.95
1015.17 1014.95 1014.19 1013.68 1013.46 1013.70 1014.06 1014.65 1014.76 1014.92 1015.06 1014.75 1014.44 1014.05 1013.85 1013.80 1013.88 1014.22 1014.52 1014.41 1014.32 1014.16 1014.04 1013.77 1013.67 1013.63 1013.59 1013.18 1012.81 1012.52 1012.36 1012.18 1012.17 1012.24 1012.35 1012.68 1012.94 1013.07 1013.37 1013.70 1013.93 1014.16 1014.63 1014.93 1015.39 1015.73 1016.10 1016.51 1016.86
1015.84 1015.59 1015.39 1015.31 1015.35 1015.40 1015.53 1015.69 1015.60 1015.67 1015.40 1014.87 1014.42 1013.79 1013.96 1014.13 1014.62 1015.01 1015.15 1015.07 1014.86 1014.66 1014.41 1014.14 1013.93 1013.67 1013.50 1013.30 1012.84 1012.47 1012.24 1012.04 1011.78 1011.97 1012.08 1012.33 1012.41 1012.64 1012.82 1013.15 1013.56 1013.87 1014.15 1014.65 1015.11 1015.54 1015.91 1016.37 1016.99
1016.66 1016.59 1016.47 1016.23 1016.45 1016.82 1016.67 1016.46 1016.29 1016.03 1015.26 1015.05 1014.96 1014.86 1014.82 1014.90 1015.23 1015.38 1015.51 1015.57 1015.51 1015.24 1014.85 1014.49 1014.09 1013.58 1013.38 1013.31 1013.00 1012.55 1012.22 1012.03 1011.67 1011.32 1011.56 1011.68 1011.98 1012.16 1012.43 1012.53 1012.86 1013.31 1013.68 1014.02 1014.43 1015.14 1015.74 1015.98 1016.51
1017.40 1017.09 1017.23 1017.09 1017.19 1017.41 1017.41 1017.16 1016.90 1016.33 1015.53 1015.20 1015.09 1015.20 1015.23 1015.52 1015.63 1015.71 1015.98 1016.19 1015.86 1015.52 1015.17 1014.83 1014.32 1013.84 1013.35 1013.13 1013.03 1012.53 1012.16 1011.94 1011.81 1011.50 1010.94 1011.18 1011.54 1011.60 1011.56 1011.60 1011.92 1012.37 1012.83 1013.34 1013.75 1014.34 1014.89 1015.42 1015.65
1017.91 1017.67 1017.68 1017.48 1017.49 1017.62 1017.38 1017.16 1016.86 1015.71 1015.47 1015.19 1015.23 1015.28 1015.42 1015.52 1015.59 1015.89 1016.07 1016.15 1016.11 1015.85 1015.46 1015.04 1014.71 1014.18 1013.43 1013.13 1012.81 1012.65 1012.19 1011.82 1011.53 1011.31 1011.05 1010.76 1010.74 1010.97 1010.99 1011.09 1011.27 1011.79 1011.96 1012.42 1012.99 1013.66 1014.29 1014.67 1014.90
1018.43 1018.23 1017.78 1017.35 1017.53 1017.67 1017.57 1016.89 1016.93 1015.62 1015.09 1015.01 1015.13 1015.18 1015.28 1015.53 1015.84 1016.05 1016.15 1016.11 1016.00 1015.70 1015.40 1015.03 1014.58 1014.15 1013.53 1012.94 1012.66 1012.37 1012.03 1011.63 1011.35 1011.12 1010.79 1010.53 1010.51 1010.18 1010.44 1010.64 1011.04 1011.23 1011.57 1011.98 1012.31 1012.85 1013.43 1014.22 1014.39
1018.64 1018.30 1017.39 1017.02 1017.44 1017.52 1017.59 1016.52 1015.95 1015.24 1014.96 1015.13 1015.03 1015.08 1015.31 1015.80 1016.15 1016.42 1016.39 1016.21 1016.00 1015.68 1015.18 1014.75 1014.34 1013.81 1013.44 1013.04 1012.43 1011.96 1011.57 1011.23 1011.04 1010.82 1010.45 1010.05 1010.27 1009.94 1008.11 1009.08 1010.16 1010.24 1010.64 1011.41 1011.78 1012.45 1012.99 1013.68 1014.14
1018.82 1018.63 1018.18 1017.25 1017.24 1017.68 1017.84 1016.91 1015.72 1015.17 1014.81 1015.03 1015.02 1015.22 1015.77 1016.29 1016.49 1016.44 1016.26 1016.16 1015.92 1015.53 1015.13 1014.65 1014.18 1013.74 1013.29 1012.81 1012.26 1011.68 1011.13 1010.84 1010.64 1010.34 1010.03 1009.65 1009.66 1009.88 1009.75 1009.19 1009.49 1008.92 1009.63 1010.66 1011.30 1012.17 1012.79 1013.18 1013.63
1019.66 1019.78 1019.03 1017.93 1017.36 1017.47 1017.52 1016.45 1015.56 1015.22 1014.74 1014.86 1015.27 1015.77 1016.32 1016.50 1016.43 1016.39 1016.13 1016.03 1015.88 1015.59 1015.11 1014.60 1014.19 1013.58 1012.96 1012.42 1011.96 1011.37 1010.85 1010.33 1009.96 1009.78 1009.63 1009.27 1009.10 1009.07 1009.06 1008.99 1009.48 1009.03 1009.61 1009.60 1010.61 1011.32 1011.93 1012.87 1013.37
1020.58 1020.40 1019.60 1019.04 1018.04 1017.68 1016.98 1016.23 1015.18 1014.92 1015.18 1015.39 1015.86 1016.36 1016.57 1016.61 1016.50 1016.22 1016.02 1015.92 1015.83 1015.64 1015.13 1014.51 1014.02 1013.47 1012.83 1012.10 1011.49 1010.97 1010.42 1009.83 1009.26 1009.27 1009.10 1008.87 1008.85 1008.64 1008.86 1008.74 1008.77 1009.11 1009.66 1009.52 1009.44 1010.51 1011.20 1012.10 1012.97
1021.19 1020.94 1020.41 1019.53 1018.63 1018.24 1017.23 1016.35 1015.25 1014.85 1015.41 1015.80 1016.28 1016.63 1016.85 1016.81 1016.50 1016.35 1016.19 1016.01 1015.73 1015.51 1015.16 1014.53 1013.88 1013.30 1012.76 1011.98 1011.25 1010.64 1009.88 1009.30 1008.76 1008.49 1008.35 1008.24 1008.39 1008.40 1008.69 1008.57 1008.57 1008.57 1009.22 1009.75 1009.90 1009.70 1010.40 1011.61 1012.50
1021.34 1021.08 1020.38 1019.51 1019.10 1019.24 1017.51 1016.24 1015.20 1014.88 1015.36 1015.91 1016.57 1016.99 1016.98 1016.82 1016.61 1016.47 1016.40 1016.12 1015.86 1015.56 1015.13 1014.62 1014.04 1013.51 1013.04 1012.49 1011.54 1010.22 1009.59 1008.83 1008.03 1007.62 1007.59 1007.47 1007.75 1008.00 1008.37 1008.46 1008.14 1007.95 1008.64 1009.27 1009.71 1009.85 1010.42 1010.99 1011.75
1021.41 1021.03 1020.75 1020.71 1019.65 1018.75 1018.46 1016.62 1015.17 1015.06 1015.54 1016.16 1016.62 1016.93 1017.02 1016.87 1016.64 1016.56 1016.40 1016.25 1015.88 1015.48 1015.01 1014.37 1013.75 1013.49 1012.90 1012.18 1011.21 1010.08 1009.17 1008.46 1007.71 1007.08 1006.88 1006.95 1007.07 1007.48 1007.92 1007.63 1007.49 1007.47 1007.35 1008.37 1008.76 1009.09 1010.17 1010.42 1011.66
1021.70 1021.05 1021.03 1021.20 1021.52 1021.02 1019.79 1018.78 1016.54 1015.76 1016.03 1016.26 1016.67 1016.94 1017.04 1017.12 1017.09 1016.87 1016.57 1016.29 1016.02 1015.39 1014.68 1014.12 1013.64 1013.15 1012.24 1011.35 1010.46 1009.57 1008.61 1007.93 1007.23 1006.83 1006.59 1006.59 1006.56 1006.78 1007.10 1007.12 1006.74 1006.50 1006.64 1007.23 1007.74 1008.57 1008.53 1009.99 1010.35
1021.68 1021.58 1021.33 1021.64 1022.51 1022.49 1020.82 1020.31 1016.96 1016.32 1016.39 1016.74 1017.15 1017.34 1017.36 1017.43 1017.28 1016.98 1016.82 1016.45 1016.00 1015.40 1014.65 1013.95 1013.38 1012.68 1011.53 1010.45 1009.45 1008.55 1007.85 1007.43 1006.89 1006.38 1006.21 1006.07 1006.06 1006.30 1006.64 1006.63 1006.51 1006.22 1005.35 1006.02 1006.46 1008.07 1008.74 1009.04 1010.01
1022.04 1021.80 1021.48 1021.92 1023.31 1023.39 1022.09 1021.48 1018.20 1017.34 1017.42 1017.51 1017.73 1017.88 1017.54 1017.40 1017.21 1017.14 1016.79 1016.21 1015.66 1014.97 1014.39 1013.73 1013.09 1012.13 1011.00 1009.62 1007.83 1007.11 1007.22 1006.85 1006.41 1006.22 1006.15 1006.12 1006.04 1006.17 1006.31 1006.40 1006.11 1005.82 1005.40 1005.41 1005.87 1006.70 1007.65 1007.97 1008.86
1022.49 1023.20 1023.81 1023.86 1024.02 1023.32 1022.49 1021.74 1018.63 1017.92 1018.10 1018.46 1018.30 1017.99 1017.88 1017.80 1017.56 1017.16 1016.72 1016.19 1015.64 1015.06 1014.35 1013.77 1013.05 1011.81 1010.69 1009.34 1007.94 1006.82 1006.48 1006.35 1005.91 1006.01 1006.03 1006.08 1006.06 1006.09 1006.06 1006.07 1005.90 1005.74 1005.25 1005.06 1005.09 1006.17 1007.07 1007.65 1008.31
1023.88 1024.98 1025.98 1026.36 1025.26 1024.30 1022.81 1021.66 1018.65 1018.18 1018.72 1019.12 1019.23 1018.91 1018.74 1018.51 1018.18 1017.72 1017.17 1016.47 1015.80 1015.09 1014.40 1013.78 1012.98 1011.90 1010.65 1009.32 1008.17 1007.09 1006.39 1006.21 1006.00 1005.99 1006.01 1005.89 1005.89 1006.03 1005.96 1006.00 1005.94 1005.77 1005.45 1004.77 1005.01 1005.97 1006.14 1006.63 1007.45
1024.79 1025.57 1026.03 1026.74 1025.93 1025.50 1022.88 1020.35 1019.22 1019.13 1019.51 1019.59 1019.67 1019.54 1019.31 1018.86 1018.40 1017.88 1017.29 1016.65 1015.85 1015.01 1014.27 1013.67 1012.83 1011.89 1010.78 1009.45 1008.48 1007.60 1007.03 1006.53 1006.42 1006.63 1006.23 1006.08 1006.00 1006.03 1006.14 1006.25 1006.29 1005.79 1005.86 1004.29 1004.76 1005.05 1005.62 1006.43 1006.52
1025.12 1025.94 1026.55 1027.10 1026.84 1025.29 1022.48 1021.38 1020.14 1020.13 1020.51 1020.65 1020.35 1020.02 1019.57 1018.98 1018.41 1017.90 1017.35 1016.68 1015.88 1015.04 1014.17 1013.46 1012.76 1011.87 1010.87 1009.76 1009.15 1008.51 1007.98 1007.52 1007.45 1007.44 1006.91 1006.50 1006.41 1006.41 1006.44 1006.42 1006.29 1005.99 1005.31 1004.70 1004.09 1004.58 1005.19 1005.85 1006.61
1025.46 1025.91 1026.49 1026.75 1026.59 1025.97 1023.99 1021.07 1019.50 1020.41 1020.97 1021.17 1020.74 1020.03 1019.61 1018.99 1018.49 1017.87 1017.32 1016.64 1015.85 1015.06 1014.26 1013.37 1012.55 1011.72 1010.78 1010.13 1009.61 1009.02 1008.57 1008.01 1007.90 1007.57 1007.18 1006.90 1006.80 1006.72 1006.80 1006.45 1006.57 1006.27 1005.15 1005.10 1004.46 1004.51 1005.24 1005.92 1006.86
1024.06 1024.81 1025.40 1026.27 1026.25 1025.69 1024.81 1020.92 1019.01 1020.08 1020.82 1020.80 1020.37 1019.88 1019.61 1019.13 1018.50 1017.96 1017.37 1016.75 1015.97 1015.22 1014.39 1013.52 1012.61 1011.74 1011.02 1010.31 1009.72 1009.20 1008.65 1008.29 1008.00 1007.66 1007.33 1007.14 1007.06 1007.06 1006.93 1006.34 1006.60 1006.54 1006.05 1005.65 1005.14 1005.22 1005.86 1006.92 1007.79
Wind_Speed
15 10 4 3 2 3 6 7 5 2 3 8 7 6 7 9 6 2 6 8 9 10 13 9 8 11 9 10 9 8 9 12 13 12 12 13 13 14 13 12 11 11 12 12 13 13 12 10 10
9 10 3 4 3 5 6 12 6 8 6 8 5 6 5 3 8 7 4 10 8 9 11 13 22 8 9 7 8 9 10 10 13 13 14 14 14 15 14 13 11 12 13 13 13 13 13 12 11
11 8 3 4 5 5 5 8 10 6 8 8 7 7 5 5 9 5 7 10 10 8 10 12 20 15 9 9 8 9 11 12 14 14 15 15 16 16 15 13 13 12 13 13 11 12 14 14 13
4 3 4 4 10 9 7 10 9 6 5 4 8 7 6 6 5 6 8 9 9 7 8 11 18 18 17 10 12 10 10 13 15 15 15 15 15 15 15 14 13 12 11 15 14 13 16 16 15
3 4 4 5 11 11 6 13 8 5 6 1 6 5 5 5 8 10 9 9 8 9 6 8 14 19 19 21 11 12 12 11 14 15 15 15 15 14 14 14 13 12 13 14 14 15 15 15 16
3 3 4 7 10 10 10 11 6 4 7 9 5 7 4 8 6 10 8 9 9 8 8 6 9 12 13 16 18 10 14 13 12 13 15 15 15 15 15 14 13 12 12 11 16 15 15 16 15
3 3 5 9 10 8 7 10 10 7 7 4 5 4 5 8 11 9 8 8 9 7 5 5 5 8 10 9 12 15 12 13 13 12 13 14 14 15 15 14 14 12 12 11 16 16 16 16 15
4 3 5 4 4 2 5 5 6 6 6 9 0 5 5 10 8 7 8 8 7 7 6 5 6 6 7 7 7 8 13 12 12 12 12 12 12 13 12 13 13 14 13 13 15 16 16 17 15
3 2 4 7 7 4 9 9 6 7 7 8 8 7 8 10 11 10 8 8 7 6 7 7 5 6 6 7 6 6 7 10 9 11 11 9 7 9 11 12 13 14 14 14 16 16 15 13 13
3 2 7 5 7 7 9 8 8 6 11 12 11 7 7 11 10 9 8 7 8 9 9 7 7 5 6 6 6 5 5 6 7 9 10 8 10 8 10 11 12 15 15 14 17 17 15 12 5
6 3 6 6 8 8 8 10 8 9 8 10 10 11 12 8 8 7 10 10 10 12 8 9 8 7 4 5 5 3 2 3 5 11 11 9 9 8 7 6 8 9 12 8 12 11 7 9 8
4 3 3 5 6 4 7 10 10 15 16 10 9 10 8 7 8 7 8 11 14 11 12 13 9 7 7 3 4 5 3 3 3 5 8 9 7 9 9 7 11 11 9 10 10 8 10 10 11
3 6 6 6 6 7 7 10 11 18 13 8 7 6 7 7 7 9 8 8 9 11 12 13 13 14 8 6 4 5 4 3 4 4 4 6 10 11 10 10 10 11 11 11 11 10 10 11 9
4 7 12 5 4 6 8 15 7 6 8 7 7 8 8 10 9 10 9 10 11 13 11 10 13 13 13 7 7 5 5 5 4 4 6 5 7 10 11 11 11 11 11 12 11 11 11 9 9
5 5 10 6 4 3 5 10 7 10 4 7 8 9 7 9 9 8 8 9 11 12 13 13 13 11 12 13 8 5 5 6 4 5 7 8 4 9 12 10 11 12 12 14 11 12 10 9 8
4 0 6 2 6 5 3 10 12 3 5 9 9 6 7 6 6 8 8 10 11 13 14 14 13 14 13 12 10 8 6 6 6 5 6 9 6 6 5 6 7 10 12 12 12 11 10 9 9
4 3 7 7 6 4 2 12 9 15 12 7 5 6 4 6 7 8 9 10 11 13 15 15 14 14 14 12 10 10 11 7 5 4 5 9 8 5 5 5 10 9 10 13 12 12 11 9 8
5 5 5 11 7 14 11 18 18 11 4 4 5 3 5 7 9 11 13 13 13 13 13 14 13 14 14 11 9 8 9 8 5 6 7 9 7 6 4 5 5 10 5 6 10 12 10 10 9
6 8 10 13 12 9 10 20 21 5 4 4 4 6 7 8 11 12 13 12 14 12 14 15 14 14 11 9 8 7 9 9 6 6 9 9 7 5 4 4 5 5 5 13 10 10 15 10 10
7 9 8 11 11 13 13 19 18 11 5 3 3 7 8 13 14 14 13 11 12 13 14 15 16 15 14 12 12 8 8 9 9 6 8 8 7 5 5 6 8 8 8 7 9 7 8 7 11
7 5 5 12 16 9 7 9 5 5 5 4 4 6 10 14 17 15 15 13 11 13 14 15 14 15 14 15 12 12 9 10 9 3 3 5 7 6 5 9 7 11 10 11 12 14 14 8 8
4 8 12 13 5 4 6 6 7 9 7 7 4 9 14 13 14 13 14 12 14 17 15 15 13 16 15 16 13 17 10 10 8 5 4 6 8 6 5 7 8 11 9 10 8 10 11 9 10
9 12 16 7 2 5 1 1 5 7 4 6 9 16 13 14 15 17 16 16 14 15 15 14 15 17 17 15 17 14 11 9 8 4 6 6 4 3 5 4 6 5 6 10 12 13 17 10 11
9 7 10 3 3 3 2 4 7 3 2 8 13 15 15 17 16 16 16 16 16 15 14 14 14 16 17 16 17 12 12 11 6 4 3 3 3 3 5 5 5 8 5 7 9 11 17 13 12
8 7 6 6 2 6 5 3 11 4 4 9 16 18 16 17 16 17 17 15 15 16 15 13 14 17 17 15 15 9 11 14 6 6 4 3 3 3 5 3 4 6 9 7 8 12 11 12 11
3 2 3 5 5 8 6 7 8 6 6 8 10 12 15 16 15 17 16 15 13 15 14 14 14 14 15 14 13 13 7 6 3 3 3 3 3 2 3 2 3 3 9 12 10 9 9 10 9
2 1 2 2 2 2 6 8 4 3 5 9 13 12 14 15 15 16 15 14 14 13 13 13 14 12 12 13 11 12 11 9 8 8 6 4 3 0 3 3 4 4 5 7 13 9 10 11 10
2 1 3 1 5 7 7 8 7 6 7 8 9 9 12 13 15 15 14 14 13 12 11 11 11 11 10 10 10 9 8 7 6 6 8 7 6 2 3 3 4 5 2 7 13 11 10 10 9
2 2 2 1 2 3 6 8 7 7 5 8 8 8 10 12 13 14 13 13 13 12 12 12 11 10 9 8 8 7 7 6 6 5 5 4 5 4 1 2 3 5 4 4 4 7 5 6 5
1 3 4 5 6 5 3 13 5 8 7 5 6 7 9 10 12 13 13 14 14 13 13 12 12 11 10 9 8 7 6 6 5 5 4 3 4 3 1 5 3 3 3 5 6 10 11 10 8
Wind_Direction
312 301 282 283 239 227 270 247 243 106 29 16 7 340 346 317 348 104 99 9 40 11 0 350 206 185 176 178 184 183 188 185 179 180 180 178 178 175 176 168 168 167 164 164 160 160 159 154 143
302 289 274 262 252 237 253 244 181 50 41 345 298 256 266 86 37 96 46 352 33 26 16 11 4 236 186 191 197 182 186 188 189 188 188 186 186 181 182 181 180 178 173 165 168 172 159 143 150
254 259 251 195 205 223 268 60 57 31 45 17 330 13 13 38 47 72 19 359 0 47 25 23 17 345 198 187 205 203 191 192 194 196 197 194 192 187 186 187 187 191 184 167 165 184 156 148 140
294 204 264 262 245 258 280 87 76 6 113 92 28 295 88 35 78 53 20 5 2 4 39 19 17 15 355 205 194 210 205 199 198 198 199 201 198 192 185 185 182 193 195 165 148 150 152 147 142
235 258 249 233 255 273 335 68 45 8 322 54 71 302 9 77 101 50 14 359 358 339 55 28 20 15 12 4 231 213 215 209 209 204 198 201 202 196 189 187 186 186 185 174 160 157 152 149 146
260 294 249 238 251 256 67 36 12 349 357 353 11 352 288 125 67 27 8 350 343 332 7 52 15 3 7 7 360 242 225 218 216 211 204 201 197 194 189 193 187 184 188 186 173 161 159 154 152
273 214 262 282 286 315 52 355 37 14 332 9 349 305 293 109 37 15 353 346 320 350 358 12 37 0 350 353 358 348 290 230 222 216 211 215 205 194 189 189 190 187 185 180 166 162 164 161 158
310 325 287 256 289 48 64 10 65 358 322 358 58 255 299 338 14 26 353 328 340 344 346 26 9 11 339 329 331 342 324 284 232 225 215 207 207 197 189 187 188 191 187 184 168 165 167 165 158
304 293 268 346 22 8 28 2 351 358 284 270 253 257 275 316 10 8 344 342 343 348 352 355 10 348 334 317 311 303 309 277 254 232 223 218 214 196 190 192 187 190 191 189 172 166 166 160 155
344 279 31 1 5 348 343 330 328 321 303 293 297 333 348 7 2 342 335 338 340 340 344 337 338 322 332 312 302 312 301 298 237 232 225 217 215 210 199 191 192 196 186 181 174 170 166 152 153
5 329 11 16 26 353 320 308 316 316 274 284 335 331 334 352 333 332 352 346 343 333 323 315 307 306 305 314 291 274 285 299 303 226 227 218 216 212 205 193 190 189 181 182 173 171 173 171 164
329 60 349 334 347 328 310 308 293 275 273 290 326 323 324 340 315 0 2 341 324 331 331 335 326 319 303 274 294 285 267 270 274 310 241 217 217 211 207 195 191 187 182 183 178 176 176 183 178
288 7 321 291 267 289 292 283 279 288 282 292 332 308 287 290 314 358 345 322 336 324 328 321 325 321 304 285 275 293 275 260 255 259 295 244 223 216 207 200 190 194 182 182 179 177 182 182 182
336 298 282 251 255 279 308 300 321 274 304 299 288 317 318 319 9 350 338 340 333 325 319 311 311 307 302 286 258 245 267 262 259 255 248 253 253 234 219 204 201 191 192 189 184 183 178 184 181
298 297 285 197 177 276 11 284 191 239 285 263 269 286 329 22 358 334 320 328 325 317 311 309 303 302 309 307 294 261 248 259 235 249 255 259 249 248 271 209 199 194 190 190 191 186 177 180 182
278 151 356 143 188 153 127 278 299 318 295 282 294 329 36 351 316 298 314 319 309 308 308 307 304 300 292 292 291 282 259 245 240 229 249 257 255 213 253 247 230 210 192 191 189 187 181 182 183
60 267 297 316 218 243 202 274 262 295 284 318 332 35 337 284 298 311 303 318 324 324 314 306 302 296 289 282 278 277 276 251 233 223 243 252 255 219 237 220 223 221 224 187 192 188 180 180 179
306 310 315 302 305 300 290 271 280 308 6 341 37 250 287 319 307 318 327 327 322 313 304 300 304 303 297 290 281 277 273 263 226 219 232 243 249 230 208 225 195 211 196 221 187 195 183 184 176
298 292 288 287 305 308 278 291 288 256 158 184 221 343 323 308 323 325 325 322 317 319 317 305 299 300 310 298 278 272 265 254 237 207 223 237 236 245 201 199 187 182 204 222 205 208 183 181 171
293 285 282 282 324 321 293 290 278 260 187 131 340 299 321 323 320 325 320 317 319 319 319 318 310 313 306 301 297 271 266 274 238 215 206 221 226 221 242 208 196 180 199 191 184 214 202 182 176
288 259 321 302 333 273 297 284 157 155 148 196 240 313 327 327 329 326 323 324 320 318 315 308 307 305 293 285 284 282 270 267 267 254 194 221 221 208 241 246 203 190 184 203 215 210 194 172 194
286 2 325 314 31 302 52 281 308 134 191 186 315 328 326 335 326 322 326 325 327 317 311 311 310 303 293 287 278 271 254 264 248 229 212 228 227 212 231 281 235 196 186 188 183 201 190 175 172
247 321 291 289 91 346 191 76 256 148 210 349 334 329 326 337 332 333 330 327 322 319 317 307 311 304 297 292 278 260 244 250 260 220 214 202 230 225 268 282 260 202 170 176 176 194 195 170 180
317 304 307 95 151 257 198 82 268 224 296 326 335 325 337 338 338 329 326 329 325 322 317 317 313 313 307 306 312 227 246 257 235 253 253 210 216 220 252 283 291 218 185 170 162 188 184 167 174
20 1 334 349 259 239 219 305 249 151 33 2 333 329 341 338 333 328 329 328 323 320 321 319 318 318 312 317 328 290 232 244 241 222 208 226 246 237 229 251 325 277 193 190 183 165 172 181 179
39 69 131 277 309 298 228 239 261 141 50 3 325 330 335 331 331 327 326 322 318 315 315 319 320 314 314 322 332 335 4 358 0 354 316 233 208 247 292 271 269 292 311 186 183 189 182 176 189
131 250 29 269 238 311 239 277 58 92 349 346 337 337 328 328 329 326 326 321 318 318 317 318 315 313 315 330 339 342 347 359 4 343 337 342 336 6 345 341 296 276 298 235 180 181 184 191 181
141 115 17 290 306 296 291 285 245 306 317 315 319 327 328 324 328 330 329 325 319 321 316 308 307 309 314 336 337 334 335 350 338 311 303 311 318 354 353 2 313 288 10 322 187 187 184 192 199
140 234 248 126 200 273 304 264 200 199 232 272 293 328 330 326 328 330 330 327 328 331 329 325 324 323 329 330 320 320 320 335 322 296 297 327 326 335 71 62 322 306 26 22 43 92 97 156 94
100 232 161 134 271 237 252 267 165 183 211 224 280 335 323 322 329 332 333 334 338 338 335 339 334 336 333 325 318 317 325 332 316 315 330 347 333 347 10 71 3 29 69 69 76 78 82 80 84